EHI
4 4 5 4 2 2 4 4 3 2 1 1 0 0 0 0 0 0 0 0 0 1 2 2 1 0 0 1 1 1 1 0 0 0 0 0 0 0 0 0 0 0 0
6 7 7 6 4 3 4 4 2 2 3 2 2 1 1 1 0 0 0 0 0 0 1 2 2 1 1 2 2 2 2 1 1 1 0 0 0 0 0 0 0 0 0
7 8 8 7 5 3 3 3 2 3 4 4 4 4 4 3 1 0 0 0 0 0 0 1 1 2 3 4 4 3 3 3 2 2 1 0 0 0 0 0 0 0 0
9 9 8 7 5 4 3 2 2 3 4 5 5 5 5 5 2 0 0 0 0 0 0 0 1 3 4 5 4 3 3 3 4 3 2 1 0 0 0 0 0 0 0
12 11 9 7 5 4 3 2 3 4 5 5 5 5 5 5 4 1 0 0 0 0 1 1 2 4 5 5 4 3 4 4 4 4 4 3 2 1 0 0 0 0 0
11 10 8 7 5 4 3 4 4 5 5 5 5 4 4 4 3 2 1 1 0 0 1 2 2 3 4 4 3 3 4 4 4 4 5 5 5 3 2 0 0 0 0
9 8 6 7 7 5 4 6 6 6 6 6 6 5 3 3 2 2 2 1 0 0 1 1 1 2 3 4 3 3 3 4 4 4 6 7 6 6 4 2 1 0 0
9 7 6 6 7 6 5 6 7 7 7 7 6 4 2 1 2 2 2 1 0 0 0 0 0 0 1 3 3 2 2 2 2 4 6 6 6 6 5 4 3 2 1
9 9 7 5 6 7 7 7 8 8 8 8 7 4 1 1 1 2 1 1 1 1 1 0 0 1 2 2 2 1 1 1 1 2 3 4 4 4 4 5 5 4 2
9 9 8 7 7 7 9 9 9 9 9 9 8 7 4 2 1 1 1 1 2 2 1 0 1 2 3 3 2 1 0 0 0 0 1 3 4 3 3 4 5 4 3
11 10 10 8 8 9 11 11 10 9 10 11 11 10 8 6 3 2 1 1 2 2 1 1 2 3 4 4 3 1 0 0 0 0 0 1 2 2 2 2 2 3 3
12 12 12 11 10 11 11 12 11 10 12 14 14 13 12 9 7 5 2 1 3 2 1 1 2 3 4 3 2 1 0 0 0 0 0 0 1 1 1 0 1 1 1
11 12 13 12 12 12 11 11 11 12 14 14 13 13 12 11 9 7 4 2 2 2 1 1 2 3 4 4 3 1 0 0 0 0 0 0 0 0 0 0 0 0 0
11 11 12 13 13 12 11 10 10 11 13 12 9 9 10 10 9 7 5 3 2 1 1 3 4 4 4 5 5 4 3 2 0 0 0 0 0 0 0 0 0 0 0
11 11 11 12 13 13 13 11 11 11 12 10 8 6 7 9 8 7 6 5 4 2 2 4 6 5 5 6 6 7 6 4 1 0 0 0 0 0 0 0 0 0 0
10 10 10 11 11 13 14 14 13 12 12 11 9 7 7 7 7 7 6 6 7 5 3 4 6 7 6 6 6 7 7 4 1 0 0 0 0 0 0 0 0 0 0
9 8 8 10 11 12 14 14 14 13 13 12 10 8 8 7 7 8 8 7 8 7 5 4 5 8 9 8 6 6 5 3 2 1 0 0 0 0 0 0 0 0 0
7 7 7 8 10 11 13 14 13 12 12 11 10 10 9 8 9 10 10 8 7 7 6 4 5 8 11 9 7 5 4 3 3 1 0 0 0 0 0 0 0 0 0
8 7 6 7 9 10 12 13 12 11 11 12 12 12 11 11 11 12 11 7 5 5 5 4 5 7 9 9 7 4 4 4 3 2 1 0 0 0 0 0 0 0 0
7 7 6 7 7 9 11 12 12 11 11 12 14 14 14 13 12 11 10 8 6 6 5 4 5 6 7 8 6 4 4 4 4 3 2 1 1 1 0 0 0 0 0
5 5 6 6 7 7 9 10 11 11 11 11 13 14 14 12 10 8 7 8 9 8 6 5 6 7 8 7 5 4 3 4 3 3 3 3 2 2 2 1 1 0 0
2 3 4 5 6 6 6 6 7 9 10 11 12 13 12 10 8 6 5 5 7 7 6 6 7 10 10 7 5 4 4 3 3 3 3 3 3 3 3 3 2 1 0
1 2 3 4 5 5 4 3 3 6 9 12 13 13 11 10 8 6 5 5 5 5 5 6 8 9 9 8 6 5 4 4 3 3 3 3 3 2 2 3 2 1 0
2 2 2 3 4 5 3 1 1 4 9 11 12 11 11 10 9 7 6 6 6 5 4 5 6 6 6 6 6 5 4 3 3 3 3 3 3 3 3 3 2 0 0
3 3 3 4 5 5 3 1 1 4 8 10 10 9 9 9 8 6 6 7 7 6 4 4 4 3 3 3 4 4 3 3 3 3 3 3 3 3 3 3 2 1 0
2 3 5 5 6 5 3 1 1 4 7 9 9 8 7 7 6 4 5 6 6 5 5 5 3 2 2 2 2 3 3 3 3 3 3 3 3 3 3 3 3 2 1
Wind_Speed
1 1 1 1 1 2 2 2 3 4 3 4 4 4 4 4 4 3 5 8 6 5 5 5 5 6 6 6 6 6 6 6 6 7 7 7 7 7 8 7 7 8 8
1 0 1 1 1 1 2 1 3 3 2 3 4 4 3 3 4 2 3 6 7 6 4 4 4 5 5 5 5 6 6 6 6 6 7 7 7 7 7 7 7 7 7
1 0 1 1 1 2 2 1 2 2 2 3 3 3 2 2 3 2 2 2 5 7 5 4 3 4 4 4 5 5 5 6 6 6 7 7 7 7 7 7 7 7 7
0 1 0 1 1 1 1 2 1 2 2 2 2 2 2 2 3 2 2 2 2 3 6 5 4 4 4 4 4 4 5 5 5 6 6 6 7 7 7 7 7 8 7
1 1 0 1 1 1 1 1 2 1 2 2 2 2 1 2 2 2 2 2 2 1 2 6 6 4 4 3 3 4 5 5 5 5 6 6 6 6 6 7 7 7 7
2 1 1 1 1 1 1 1 1 1 1 1 1 2 1 1 1 1 1 2 2 2 2 3 4 5 5 4 3 3 4 5 5 5 6 6 6 6 6 7 8 8 8
2 2 1 2 1 2 1 2 2 3 2 1 2 2 2 2 2 1 1 1 2 2 2 2 1 1 4 6 4 4 4 4 4 5 5 6 6 6 7 8 8 8 8
2 2 2 2 2 2 3 2 2 1 1 1 1 1 2 4 3 2 2 2 2 2 2 2 2 1 1 2 4 4 3 2 3 3 4 5 5 6 7 7 8 8 8
2 2 2 2 1 2 2 2 3 3 2 2 0 2 1 1 2 3 3 2 2 1 1 2 2 2 1 1 3 5 3 1 1 2 3 3 4 5 6 7 8 8 7
2 2 3 2 2 2 2 3 3 2 2 2 2 1 2 2 1 2 3 3 2 2 1 1 2 2 2 2 3 4 3 1 0 1 2 2 2 2 4 5 6 7 8
2 2 2 2 3 2 2 2 2 3 2 2 1 1 1 1 2 2 2 2 2 2 2 2 2 2 3 2 3 4 4 2 1 1 2 2 2 2 2 3 4 5 6
1 2 2 2 2 2 2 3 2 4 3 2 2 1 2 2 1 2 2 2 2 2 2 2 2 2 3 3 3 5 4 3 3 2 2 2 2 3 4 4 4 5 5
2 2 2 2 2 2 2 2 3 3 3 3 3 2 2 2 2 2 2 2 2 2 2 3 3 3 2 2 3 5 5 4 4 4 3 3 3 3 4 4 5 5 6
1 1 2 2 2 2 2 2 3 3 3 4 4 3 3 2 2 2 2 2 2 2 3 2 2 2 2 2 2 5 4 5 4 4 4 4 4 4 4 4 4 4 5
1 1 2 3 3 2 3 3 3 3 3 4 4 4 3 2 2 3 3 3 3 3 2 3 2 2 2 1 2 4 3 5 5 4 4 4 4 4 4 4 4 5 4
1 2 2 3 3 3 3 3 4 4 3 3 3 3 4 3 3 3 3 3 3 4 3 1 2 1 1 2 2 3 3 6 6 6 5 5 4 5 5 5 5 5 6
2 3 3 3 3 4 4 4 4 4 4 4 4 4 5 4 3 3 3 3 3 3 3 2 2 1 2 3 2 3 4 4 4 7 5 5 5 4 4 5 5 6 6
3 3 3 4 4 4 4 4 5 5 4 5 5 4 5 4 4 4 3 4 3 3 4 4 3 2 3 3 3 4 4 3 3 6 7 6 5 5 4 5 5 5 6
3 3 4 4 4 4 5 5 5 5 5 4 4 5 5 5 5 4 5 4 4 4 4 4 4 2 2 2 3 4 4 3 4 5 8 8 7 6 5 5 6 6 6
3 3 4 4 4 4 5 5 5 5 4 4 4 5 5 5 5 5 5 5 4 4 4 5 4 3 3 2 3 3 3 3 3 3 2 3 6 8 7 7 7 7 7
3 3 4 4 4 4 4 4 4 4 4 4 4 4 5 4 3 3 4 4 4 4 4 4 4 4 3 2 3 3 3 3 3 3 3 3 4 5 6 8 8 8 7
4 4 4 4 4 3 1 1 4 4 4 4 4 4 5 5 4 4 3 3 4 5 5 5 4 4 3 4 3 4 4 4 3 2 4 4 4 4 4 4 5 8 8
4 5 5 4 4 3 2 3 4 4 4 4 4 4 4 3 5 5 5 6 5 5 6 6 6 5 4 4 4 5 3 4 4 3 4 5 4 4 3 2 7 8 8
4 4 4 5 4 4 4 5 5 6 5 5 5 5 5 4 4 4 5 5 5 6 7 7 6 5 5 4 4 5 5 5 5 4 4 5 4 4 3 3 8 8 8
4 4 5 5 5 4 5 5 6 5 5 6 6 6 5 6 3 4 6 6 6 5 5 5 5 4 3 4 5 5 5 5 5 3 3 5 5 5 4 4 5 10 9
4 4 4 4 5 5 5 7 7 6 5 5 5 5 6 6 4 5 7 7 7 6 5 5 6 7 8 7 8 7 6 6 5 4 2 4 5 4 5 4 3 5 6
Wind_Direction
55 80 73 54 53 77 113 118 103 104 113 116 108 104 102 95 91 97 112 114 114 122 132 145 157 156 156 153 151 151 153 156 159 164 166 170 173 175 173 171 174 172 176
65 71 115 80 71 76 68 97 105 114 103 98 106 106 103 104 99 102 112 127 127 124 126 132 144 154 157 155 153 153 156 156 161 162 160 162 164 164 167 169 170 170 167
118 230 101 116 78 99 112 117 120 122 121 118 116 116 111 103 109 113 114 125 141 143 137 136 137 139 147 159 161 161 164 165 166 168 168 167 165 166 170 174 179 179 174
203 246 142 113 105 139 126 128 146 137 123 127 129 129 124 130 131 144 146 139 133 142 147 147 146 139 144 154 164 166 169 169 172 175 177 176 173 174 179 183 184 182 178
189 227 178 103 185 160 142 153 123 138 138 139 145 135 143 141 146 158 147 137 123 141 145 146 156 152 155 155 159 167 171 171 170 174 174 175 176 179 183 185 183 183 188
185 213 182 153 190 160 143 116 133 137 151 159 144 119 122 113 139 137 169 139 134 149 144 141 161 161 161 162 168 174 174 174 176 183 185 185 187 189 190 190 187 189 192
178 214 214 155 200 164 170 176 184 166 159 166 170 156 147 139 126 128 135 122 126 127 122 128 147 156 161 166 172 181 189 185 187 196 200 197 199 199 200 200 199 199 200
211 193 213 206 183 177 175 177 192 200 160 171 238 204 167 157 155 130 131 128 117 133 139 139 135 146 178 157 131 154 178 194 200 205 210 211 212 215 208 208 205 203 201
205 221 204 228 212 213 174 190 194 191 194 176 278 298 252 148 142 139 141 128 125 121 141 139 154 149 165 119 133 138 136 147 193 224 220 216 214 214 213 215 209 201 201
202 202 208 213 232 224 194 205 186 202 208 201 175 258 319 2 279 159 160 151 158 172 196 201 164 159 168 147 116 101 127 137 178 276 249 221 202 200 213 210 203 202 203
206 207 207 214 219 226 205 207 201 216 210 226 226 195 180 200 255 249 182 163 174 175 197 202 184 173 168 170 169 128 140 157 190 249 263 239 222 212 209 208 205 203 203
211 210 209 214 221 227 210 203 214 209 212 217 251 242 221 228 230 244 221 210 194 175 197 193 196 186 190 182 163 130 157 185 209 229 243 239 226 220 219 216 211 203 203
216 224 223 212 221 221 216 207 208 226 212 211 222 237 244 245 262 267 255 239 233 198 192 202 194 200 198 187 165 155 174 193 213 228 232 238 236 228 219 218 214 211 209
266 259 231 219 214 212 215 208 213 217 216 225 226 229 244 235 237 244 256 260 248 223 199 203 194 195 200 206 136 195 182 183 206 225 231 234 234 231 223 212 201 207 210
249 248 242 225 216 212 220 222 219 221 220 226 221 215 231 223 230 244 245 252 263 263 231 189 203 190 221 195 169 220 217 166 197 217 226 228 229 229 221 211 204 209 208
265 262 254 230 221 219 217 223 225 210 216 224 226 226 234 235 229 232 237 242 253 263 267 233 224 198 267 247 182 243 230 168 194 204 215 221 224 228 225 222 218 215 212
243 244 247 243 227 222 223 221 233 226 223 226 225 223 230 246 247 243 235 235 241 248 253 255 249 167 219 262 232 247 234 229 190 185 199 211 217 222 223 221 216 219 216
256 249 248 247 239 231 232 231 230 230 229 232 230 229 230 225 226 245 242 236 236 245 247 249 248 222 217 235 237 250 248 239 237 166 186 204 214 218 220 218 218 219 219
254 255 248 246 246 241 236 234 233 233 230 234 234 230 231 229 228 228 235 238 235 230 238 242 242 235 233 230 236 239 244 259 253 181 186 197 205 211 216 221 222 219 218
244 248 249 247 247 245 240 238 234 231 232 233 231 230 233 232 233 230 229 233 242 245 235 241 240 231 227 225 245 245 236 231 259 251 215 202 195 203 210 215 216 215 214
243 242 243 246 247 242 238 243 239 231 230 230 229 226 227 230 259 259 258 243 238 244 242 240 241 241 235 236 248 254 259 249 237 253 246 227 207 212 202 207 213 214 214
246 241 240 241 246 248 161 250 260 245 237 233 231 227 216 206 201 212 247 271 272 251 252 252 249 252 256 253 263 266 266 262 256 235 263 260 249 243 224 213 184 193 207
242 242 241 239 242 234 190 215 239 249 244 241 240 238 237 214 211 217 207 212 229 244 253 263 264 265 261 261 264 258 266 279 283 281 258 259 247 250 241 185 162 183 201
244 241 239 238 237 224 195 211 225 235 244 240 238 239 238 241 230 233 234 233 237 235 231 233 251 265 273 277 257 261 262 247 247 252 256 266 261 253 251 210 169 185 201
245 242 236 234 232 223 197 204 224 235 233 238 239 239 235 233 213 228 238 239 239 239 223 224 244 261 295 291 282 262 252 253 253 238 225 259 271 270 257 236 185 185 201
242 248 241 239 234 230 196 203 220 237 233 239 235 231 224 227 209 211 233 240 242 243 241 221 223 230 237 236 230 248 261 261 265 262 226 252 264 266 261 245 228 202 207